User: anonymous   Login
Location: Casco Millpond
(44.5581°N, 87.6111°W)
Time: 06:30:15
(UTC+00:00)
Language:

AQUARIUS - Orbit

View from above orbital plane
View from above orbital plane
View from above satellite
View from above satellite

Ground track
Ground track

The orbit is defined by the following mean orbital elements,

1 37673U          26065.28928433 +.00000000 +00000-0 +20524-3 0 00003
2 37673  97.9831  80.0878 0002011  90.3683 280.3788 14.78438805    03
Epoch (UTC): 06 March 2026 06:56:34
Eccentricity: 0.0002011
inclination: 97.9831°
perigee height: 633 km
apogee height: 636 km
right ascension of ascending node: 80.0878°
argument of perigee: 90.3683°
revolutions per day: 14.78438805
mean anomaly at epoch: 280.3788°

The dashed part of the orbit path shows where the satellite is in the earth's shadow,  

DLR